Regional Weather Roundup
Issued by NWS

Home | Current Version | Previous Version | Graphics & Text | Print | Product List | Glossary On
Versions: 1 2 3 4 5 6 7 8 9 10 11 12 13 14 15 16 17 18 19 20 21 22 23 24 25 26 27 28 29 30 31 32 33 34 35 36 37 38 39 40 41 42 43 44 45 46 47 48 49 50
000
ASUS45 KBOU 050707
RWRCO

WEATHER ROUNDUP FOR COLORADO
NATIONAL WEATHER SERVICE DENVER/BOULDER CO
100 AM MDT WED AUG 05 2015

NOTE: "FAIR" INDICATES FEW OR NO CLOUDS BELOW 12000 FEET WITH NO
SIGNIFICANT WEATHER AND/OR OBSTRUCTIONS TO VISIBILITY.

COZ001>005-013-030-031-050800-
...NORTHWEST COLORADO...

CITY           SKY/WX    TMP DP  RH WIND       PRES   REMARKS
CRAIG          NOT AVBL
HAYDEN         CLEAR     57  43  58 E9        30.25S
MEEKER         CLEAR     56  40  55 E7        30.25S
MOUNT WERNER   NOT AVBL
STEAMBOAT SPGS   N/A    N/A N/A N/A MISG        N/A
WALDEN         CLEAR     46  37  71 SE7       30.36S
$$

COZ006>008-011-050800-
...WEST CENTRAL VALLEYS...

CITY           SKY/WX    TMP DP  RH WIND       PRES   REMARKS
GRAND JUNCTION CLEAR     68  41  37 E6        30.09R
MONTROSE       CLEAR     67  44  43 SE12      30.20F
EAGLE          CLEAR     57  39  51 S3        30.30S
RIFLE          CLEAR     64  47  53 CALM      30.19R
DELTA          CLEAR     67  41  38 E8        30.16S
NUCLA          CLEAR     64  45  48 SE9       30.24S
$$

COZ017>023-064>068-050800-
...SOUTHWEST COLORADO...

CITY           SKY/WX    TMP DP  RH WIND       PRES   REMARKS
DURANGO        CLEAR     62  41  46 N7        30.27S
CORTEZ         CLEAR     55  47  74 SE5       30.20S
PAGOSA SPRINGS CLEAR     52  40  64 CALM      30.36S
TELLURIDE      CLEAR     54  42  65 SE5       30.49S
WOLF CREEK PAS NOT AVBL
$$

COZ009-010-012-014-032>034-037-058>063-050800-
...CENTRAL COLORADO...

CITY           SKY/WX    TMP DP  RH WIND       PRES   REMARKS
ASPEN          CLEAR     53  40  61 SW8       30.36S
BUENA VISTA    CLEAR     53  40  62 CALM      30.39R
COPPER MTN     CLEAR     52  32  46 W12G17    30.67F
BERTHOUD PASS  FAIR      41  32  70 NW21      30.69S
COTTONWOOD PAS CLEAR     59  32  36 W6        30.52S
GUNNISON       CLEAR     50  41  71 E5        30.41R
KREMMLING      CLEAR     50  34  53 CALM      30.36R
LEADVILLE      CLEAR     44  37  76 CALM      30.51S
MONARCH PASS   CLEAR     48  32  53 NW6       30.78S
SALIDA         CLEAR     57  39  51 W5        30.43R
SUNLIGHT       CLEAR     55  36  47 CALM      30.60F
WILKERSON PASS NOT AVBL
$$

COZ069>075-050800-
...SAN LUIS VALLEY/SANGRE DE CRISTO MOUNTAINS...

CITY           SKY/WX    TMP DP  RH WIND       PRES   REMARKS
ALAMOSA        CLEAR     54  42  64 NW7       30.33S
LA VETA PASS   CLEAR     50  46  87 MISG      30.54S
SAGUACHE       CLEAR     57  37  47 NW14      30.37S
$$

COZ035-036-038>040-050800-
...NORTHERN COLORADO FRONT RANGE...

CITY           SKY/WX    TMP DP  RH WIND       PRES   REMARKS
DENVER INTL AP CLEAR     61  52  72 S9        30.16R
DMNS CITY PARK   N/A     64  52  63 N5        30.17S
AURORA         PTCLDY    63  53  69 SW8       30.19S
FRONT RANGE AP NOT AVBL
ERIE MUNI ARPT CLEAR     60  51  70 CALM      30.15F
BOULDER MUN AP CLEAR     66  50  55 W3        30.16F
CENTENNIAL     CLEAR     66  44  45 CALM      30.21R
BROOMFIELD     CLEAR     64  48  55 W5        30.19S
FORT COLLINS   CLEAR     64  52  63 CALM      30.16S
LONGMONT       CLEAR     64  51  60 W3        30.17S
$$

COZ041-046-047-076>085-087-088-050800-
...PIKES PEAK/PALMER DIVIDE AND SOUTHERN FOOTHILLS...

CITY           SKY/WX    TMP DP  RH WIND       PRES   REMARKS
COLO. SPRINGS  PTCLDY    63  53  70 W5        30.27S
A. F. ACADEMY  CLEAR     53  48  83 N8        30.28S
ELLICOTT       PTCLDY   N/A N/A N/A N5        30.24R
FALCON         PTCLDY    57  53  87 W6        30.31S
FORT CARSON    PTCLDY    65  54  67 SW2       30.23S
LIMON          CLEAR     52  51  97 N3        30.19S
MONUMENT HILL  CLEAR     55  50  82 SW12      30.31R
TRINIDAD       CLEAR     66  54  65 NW13      30.19R
$$

COZ042>045-048>051-090-091-050800-
...NORTHEAST COLORADO...

CITY           SKY/WX    TMP DP  RH WIND       PRES   REMARKS
GREELEY ARPT   CLEAR     57  54  88 CALM      30.14F
AKRON          CLEAR     62  56  80 SW7       30.11F
BURLINGTON     CLEAR     64  60  87 SW6       30.09S
WRAY           CLEAR    N/A N/A N/A CALM      30.07S
STERLING       CLEAR     59  55  88 CALM      30.08S
HOLYOKE        FOG       61  59  94 CALM      30.08S VSB 1/4
FORT MORGAN    CLEAR     61  54  77 W9        30.12S
$$

COZ086-089-092>099-050800-
...SOUTHEAST COLORADO...

CITY           SKY/WX    TMP DP  RH WIND       PRES   REMARKS
PUEBLO         CLEAR     67  58  72 NW7       30.14F
LA JUNTA       CLEAR     69  62  78 CALM      30.06F
LAMAR          PTCLDY    68  63  84 E6        30.02S
SPRINGFIELD      N/A     69  64  84 S9        30.05F
$$



USA.gov is the U.S. government's official web portal to all federal, state and local government web resources and services.